Location: Grandview
(34.8900°N, 117.1058°W)
Time: 18:39:51
(UTC-07:00)

N. Korean satellite - Pass Details

Date: 08 October 2017
Orbit: 459 x 517 km, 97.2° (Epoch: 19 October)

Event Time Altitude Azimuth Distance (km) Brightness Sun altitude
Rises 18:42:22 0° 159° (SSE) 2,580 10.1 -4.9°
Reaches altitude 10° 18:44:29 10° 155° (SSE) 1,692 9.1 -5.4°
Maximum altitude 18:48:03 58° 77° (ENE) 580 6.6 -6.1°
Drops below altitude 10° 18:51:35 10° 358° (N) 1,671 9.3 -6.8°
Sets 18:53:39 0° 354° (N) 2,545 10.3 -7.3°
